Location: Helion Bumpstead
(52.0500°N, 0.4000°E)
Time: 10:37:22
(UTC+00:00)

Cosmos 1802 Rocket - Pass Details

Date: 15 November 2025
Orbit: 953 x 1011 km, 82.9° (Epoch: 09 December)

Event Time Altitude Azimuth Distance (km) Brightness Sun altitude
Rises 04:42:16 0° 346° (NNW) 3,733 6.9 -23.8°
Reaches altitude 10° 04:44:55 10° 340° (NNW) 2,771 6.2 -23.4°
Enters shadow 04:46:47 20° 332° (NNW) 2,146 5.5 -23.1°
Exits shadow 04:51:43 41° 250° (WSW) 1,390 4.3 -22.3°
Drops below altitude 10° 04:56:41 10° 202° (SSW) 2,716 6.1 -21.6°
Sets 04:59:16 0° 196° (SSW) 3,650 6.9 -21.2°
